Location: Crescent
(42.8242°N, 73.7329°W)
Time: 20:35:55
(UTC+00:00)

SR - Pass Details

Date: 16 February 2026
Orbit: 573 x 848 km, 66.7° (Epoch: 6 March)

Event Time Altitude Azimuth Distance (km) Brightness Sun altitude
Rises 11:18:16 0° 258° (WSW) 2,785 - -6.6°
Exits shadow 11:20:25 - 273° (W) 2,117 ? -6.2°
Reaches altitude 10° 11:21:14 10° 281° (W) 1,913 ? -6.1°
Maximum altitude 11:23:52 16° 319° (NW) 1,602 ? -5.6°
Drops below altitude 10° 11:26:34 10° 357° (N) 1,983 ? -5.1°
Sets 11:29:45 0° 20° (NNE) 2,945 ? -4.5°
